Tahlequah, OK

9:08 PM CDT on May 29, 2017 (GMT -0500)
Tahlequah Municipal

Weather History for KTQH - December, 2012

Change the Weather History Date:

Wednesday, December 12, 2012

  Actual Average (KMKO) Record (KMKO)
Temperature  
Mean Temperature 34 °F -  
Max Temperature 50 °F 50 °F 73 °F (2015)
Min Temperature 19 °F 30 °F 10 °F (2000)
Degree Days  
Heating Degree Days 30    
Moisture  
Dew Point 17 °F    
Average Humidity 57    
Maximum Humidity 93    
Minimum Humidity 24    
Precipitation  
Precipitation 0.00 in - - ()
Sea Level Pressure  
Sea Level Pressure 30.25 in    
Wind  
Wind Speed 2 mph (SSE)    
Max Wind Speed 13 mph    
Max Gust Speed 16 mph    
Visibility 10 miles    
Events      
Averages and records for this station are not official NWS values.
T = Trace of Precipitation, MM = Missing Value Source: NWS Daily Summary

Daily Weather History Graph

Daily Weather History Graph

Search for Another Location

Airport or City:

Trip Planner

Search our weather history database for the weather conditions in past years. The results will help you decide how hot, cold, wet, or windy it might be!

Date:

Astronomy

Dec. 12, 2012 Rise Set
Actual Time 7:21 AM CST 5:06 PM CST
Civil Twilight 6:52 AM CST 5:35 PM CST
Nautical Twilight 6:20 AM CST 6:07 PM CST
Astronomical Twilight 5:49 AM CST 6:38 PM CST
Moon 6:27 AM CST (12/12) 4:44 PM CST (12/12)
Length of Visible Light 10h 42m
Length of Day
9h 45m
Waning Crescent, 1% of the Moon is Illuminated
Dec 12
Waning Crescent
Dec 13
New
Dec 19
First Quarter
Dec 28
Full
Jan 4
Last Quarter

Hourly Weather History & Observations

Time (CST) Temp. Windchill Dew Point Humidity Pressure Visibility Wind Dir Wind Speed Gust Speed Precip Events Conditions
12:15 AM 23.0 °F - 17.6 °F 80% 30.24 in 10.0 mi Calm Calm - N/A   Clear
12:35 AM 21.2 °F - 17.6 °F 86% 30.24 in 10.0 mi Calm Calm - N/A   Clear
12:55 AM 23.0 °F - 17.6 °F 80% 30.24 in 10.0 mi Calm Calm - N/A   Clear
1:15 AM 21.2 °F - 17.6 °F 86% 30.24 in 10.0 mi Calm Calm - N/A   Clear
1:55 AM 21.2 °F - 17.6 °F 86% 30.24 in 10.0 mi Calm Calm - N/A   Clear
2:15 AM 21.2 °F - 17.6 °F 86% 30.23 in 10.0 mi Calm Calm - N/A   Clear
2:35 AM 23.0 °F - 17.6 °F 80% 30.23 in 10.0 mi Calm Calm - N/A   Clear
2:55 AM 21.2 °F - 17.6 °F 86% 30.23 in 10.0 mi Calm Calm - N/A   Clear
3:15 AM 21.2 °F - 17.6 °F 86% 30.23 in 10.0 mi Calm Calm - N/A   Clear
3:55 AM 21.2 °F - 15.8 °F 80% 30.23 in 10.0 mi Calm Calm - N/A   Clear
4:15 AM 21.2 °F - 17.6 °F 86% 30.23 in 10.0 mi Calm Calm - N/A   Clear
4:35 AM 21.2 °F - 17.6 °F 86% 30.24 in 10.0 mi Calm Calm - N/A   Clear
4:55 AM 19.4 °F - 17.6 °F 93% 30.24 in 10.0 mi Calm Calm - N/A   Clear
5:15 AM 19.4 °F - 17.6 °F 93% 30.25 in 10.0 mi Calm Calm - N/A   Clear
5:55 AM 19.4 °F - 17.6 °F 93% 30.26 in 10.0 mi Calm Calm - N/A   Clear
6:15 AM 19.4 °F - 15.8 °F 86% 30.27 in 10.0 mi Calm Calm - N/A   Clear
6:35 AM 19.4 °F - 17.6 °F 93% 30.28 in 10.0 mi Calm Calm - N/A   Clear
6:55 AM 21.2 °F - 17.6 °F 86% 30.28 in 10.0 mi Calm Calm - N/A   Clear
7:15 AM 21.2 °F - 17.6 °F 86% 30.28 in 10.0 mi Calm Calm - N/A   Clear
7:35 AM 19.4 °F - 15.8 °F 86% 30.29 in 10.0 mi Calm Calm - N/A   Clear
7:55 AM 19.4 °F - 15.8 °F 86% 30.29 in 10.0 mi Calm Calm - N/A   Clear
8:15 AM 23.0 °F - 19.4 °F 86% 30.30 in 10.0 mi Calm Calm - N/A   Clear
8:35 AM 26.6 °F - 21.2 °F 80% 30.30 in 10.0 mi Calm Calm - N/A   Clear
8:55 AM 30.2 °F 26.7 °F 21.2 °F 69% 30.30 in 10.0 mi SE 3.5 mph - N/A   Clear
9:15 AM 32.0 °F - 21.2 °F 64% 30.31 in 10.0 mi Calm Calm - N/A   Clear
9:35 AM 33.8 °F 30.8 °F 23.0 °F 65% 30.31 in 10.0 mi SE 3.5 mph - N/A   Clear
9:55 AM 35.6 °F - 21.2 °F 56% 30.31 in 10.0 mi Calm Calm - N/A   Clear
10:15 AM 37.4 °F 33.8 °F 23.0 °F 56% 30.31 in 10.0 mi South 4.6 mph - N/A   Clear
10:55 AM 42.8 °F 38.6 °F 19.4 °F 39% 30.31 in 10.0 mi South 6.9 mph - N/A   Clear
11:15 AM 44.6 °F 40.7 °F 17.6 °F 34% 30.31 in 10.0 mi South 6.9 mph - N/A   Clear
11:35 AM 44.6 °F 39.7 °F 17.6 °F 34% 30.31 in 10.0 mi South 9.2 mph - N/A   Clear
11:55 AM 44.6 °F 39.7 °F 17.6 °F 34% 30.30 in 10.0 mi South 9.2 mph - N/A   Clear
12:15 PM 46.4 °F 42.9 °F 17.6 °F 32% 30.29 in 10.0 mi South 6.9 mph - N/A   Clear
12:55 PM 46.4 °F 41.9 °F 17.6 °F 32% 30.26 in 10.0 mi South 9.2 mph - N/A   Clear
1:15 PM 48.2 °F - 17.6 °F 30% 30.25 in 10.0 mi South 8.1 mph 16.1 mph N/A   Clear
1:35 PM 48.2 °F - 15.8 °F 27% 30.24 in 10.0 mi South 9.2 mph - N/A   Clear
1:55 PM 50.0 °F - 15.8 °F 26% 30.23 in 10.0 mi South 8.1 mph 16.1 mph N/A   Clear
2:15 PM 48.2 °F - 17.6 °F 30% 30.23 in 10.0 mi South 9.2 mph - N/A   Clear
2:35 PM 48.2 °F - 17.6 °F 30% 30.23 in 10.0 mi South 6.9 mph 16.1 mph N/A   Clear
2:55 PM 50.0 °F - 17.6 °F 28% 30.22 in 10.0 mi South 6.9 mph - N/A   Clear
3:15 PM 50.0 °F - 15.8 °F 26% 30.22 in 10.0 mi SSE 12.7 mph - N/A   Clear
3:35 PM 50.0 °F - 15.8 °F 26% 30.23 in 10.0 mi SSE 9.2 mph - N/A   Clear
3:55 PM 50.0 °F - 14.0 °F 24% 30.23 in 10.0 mi South 8.1 mph - N/A   Clear
4:15 PM 48.2 °F - 14.0 °F 25% 30.22 in 10.0 mi South 6.9 mph - N/A   Clear
4:35 PM 46.4 °F 42.9 °F 14.0 °F 27% 30.22 in 10.0 mi SSE 6.9 mph - N/A   Clear
4:55 PM 46.4 °F 44.3 °F 14.0 °F 27% 30.22 in 10.0 mi SSE 4.6 mph - N/A   Clear
5:35 PM 42.8 °F 41.1 °F 14.0 °F 31% 30.21 in 10.0 mi SSE 3.5 mph - N/A   Clear
5:55 PM 39.2 °F - 15.8 °F 39% 30.21 in 10.0 mi Calm Calm - N/A   Clear
6:15 PM 35.6 °F - 15.8 °F 44% 30.22 in 10.0 mi Calm Calm - N/A   Clear
6:55 PM 33.8 °F 30.8 °F 17.6 °F 52% 30.21 in 10.0 mi ESE 3.5 mph - N/A   Clear
7:15 PM 33.8 °F 29.6 °F 17.6 °F 52% 30.21 in 10.0 mi ESE 4.6 mph - N/A   Clear
7:55 PM 35.6 °F 31.7 °F 17.6 °F 48% 30.22 in 10.0 mi SE 4.6 mph - N/A   Clear
8:15 PM 35.6 °F 30.7 °F 15.8 °F 44% 30.22 in 10.0 mi SE 5.8 mph - N/A   Clear
8:55 PM 35.6 °F 31.7 °F 15.8 °F 44% 30.22 in 10.0 mi SE 4.6 mph - N/A   Clear
9:15 PM 35.6 °F 31.7 °F 14.0 °F 41% 30.22 in 10.0 mi SSE 4.6 mph - N/A   Clear
9:35 PM 35.6 °F 31.7 °F 14.0 °F 41% 30.23 in 10.0 mi SSE 4.6 mph - N/A   Clear
9:55 PM 35.6 °F 31.7 °F 14.0 °F 41% 30.23 in 10.0 mi SSE 4.6 mph - N/A   Clear
10:15 PM 35.6 °F 31.7 °F 15.8 °F 44% 30.24 in 10.0 mi SSE 4.6 mph - N/A   Clear
10:55 PM 35.6 °F 31.7 °F 15.8 °F 44% 30.24 in 10.0 mi SE 4.6 mph - N/A   Clear
11:15 PM 35.6 °F 30.7 °F 15.8 °F 44% 30.25 in 10.0 mi SSE 5.8 mph - N/A   Clear
11:35 PM 35.6 °F 30.7 °F 15.8 °F 44% 30.25 in 10.0 mi SE 5.8 mph - N/A   Clear
11:55 PM 35.6 °F 30.7 °F 17.6 °F 48% 30.26 in 10.0 mi SE 5.8 mph - N/A   Clear